Previsão horária em Abay (Syrdarinskiy rayon)

Hoje, 30 Setembro, Quarta-feira

Tempo Temperatura Precipitação Vento Pressão Humidade
00:00 +11°C° 0 mm 6 m/s 756 mmHg 31%
01:00 +10°C° 0 mm 6 m/s 756 mmHg 32%
02:00 +10°C° 0 mm 6 m/s 756 mmHg 33%
03:00 +10°C° 0 mm 6 m/s 756 mmHg 33%
04:00 +9°C° 0 mm 6 m/s 755 mmHg 36%
05:00 +10°C° 0 mm 7 m/s 755 mmHg 36%
06:00 +11°C° 0 mm 8 m/s 756 mmHg 37%
07:00 +11°C° 0 mm 9 m/s 756 mmHg 37%
08:00 +13°C° 0 mm 9 m/s 756 mmHg 33%
09:00 +16°C° 0 mm 10 m/s 755 mmHg 28%
10:00 +17°C° 0 mm 11 m/s 756 mmHg 24%
11:00 +18°C° 0 mm 11 m/s 755 mmHg 23%
12:00 +18°C° 0 mm 11 m/s 755 mmHg 23%
13:00 +19°C° 0 mm 11 m/s 755 mmHg 22%
14:00 +19°C° 0 mm 10 m/s 755 mmHg 24%
15:00 +18°C° 0 mm 9 m/s 755 mmHg 26%
16:00 +18°C° 0 mm 9 m/s 755 mmHg 29%
17:00 +17°C° 0 mm 8 m/s 755 mmHg 33%
18:00 +16°C° 0 mm 7 m/s 755 mmHg 37%
19:00 +14°C° 0 mm 6 m/s 755 mmHg 41%
20:00 +14°C° 0 mm 5 m/s 755 mmHg 44%
21:00 +13°C° 0 mm 4 m/s 755 mmHg 47%
22:00 +13°C° 0 mm 4 m/s 755 mmHg 49%
23:00 +13°C° 0 mm 4 m/s 755 mmHg 48%

Amanhã, 1 Outubro, Quinta-feira

Tempo Temperatura Precipitação Vento Pressão Humidade
00:00 +12°C° 0 mm 4 m/s 755 mmHg 47%
01:00 +12°C° 0 mm 4 m/s 755 mmHg 46%
02:00 +10°C° 0 mm 5 m/s 755 mmHg 41%
03:00 +10°C° 0 mm 5 m/s 755 mmHg 37%
04:00 +9°C° 0 mm 5 m/s 755 mmHg 32%
05:00 +9°C° 0 mm 6 m/s 755 mmHg 32%
06:00 +10°C° 0 mm 7 m/s 755 mmHg 31%
07:00 +10°C° 0 mm 8 m/s 755 mmHg 31%
08:00 +12°C° 0 mm 8 m/s 755 mmHg 28%
09:00 +15°C° 0 mm 8 m/s 755 mmHg 25%
10:00 +17°C° 0 mm 9 m/s 755 mmHg 22%
11:00 +18°C° 0 mm 8 m/s 755 mmHg 21%
12:00 +20°C° 0 mm 8 m/s 754 mmHg 21%
13:00 +21°C° 0 mm 8 m/s 754 mmHg 21%
14:00 +21°C° 0 mm 8 m/s 754 mmHg 21%
15:00 +20°C° 0 mm 8 m/s 754 mmHg 21%
16:00 +20°C° 0 mm 7 m/s 754 mmHg 21%
17:00 +17°C° 0 mm 7 m/s 754 mmHg 22%
18:00 +16°C° 0 mm 6 m/s 754 mmHg 23%
19:00 +14°C° 0 mm 5 m/s 754 mmHg 23%
20:00 +13°C° 0 mm 6 m/s 754 mmHg 24%
21:00 +11°C° 0 mm 6 m/s 754 mmHg 25%
22:00 +11°C° 0 mm 6 m/s 754 mmHg 26%
23:00 +10°C° 0 mm 6 m/s 754 mmHg 28%

Depois de amanhã, 2 Outubro, Sexta-feira

Tempo Temperatura Precipitação Vento Pressão Humidade
00:00 +10°C° 0 mm 6 m/s 754 mmHg 30%
01:00 +9°C° 0 mm 6 m/s 754 mmHg 32%
02:00 +8°C° 0 mm 6 m/s 754 mmHg 35%
03:00 +8°C° 0 mm 6 m/s 754 mmHg 38%
04:00 +7°C° 0 mm 6 m/s 754 mmHg 41%
05:00 +7°C° 0 mm 6 m/s 754 mmHg 39%
06:00 +8°C° 0 mm 7 m/s 755 mmHg 37%
07:00 +8°C° 0 mm 7 m/s 755 mmHg 35%
08:00 +11°C° 0 mm 7 m/s 755 mmHg 29%
09:00 +13°C° 0 mm 8 m/s 755 mmHg 24%
10:00 +17°C° 0 mm 8 m/s 755 mmHg 18%
11:00 +18°C° 0 mm 8 m/s 755 mmHg 17%
12:00 +20°C° 0 mm 7 m/s 754 mmHg 16%
13:00 +21°C° 0 mm 7 m/s 754 mmHg 15%
14:00 +21°C° 0 mm 7 m/s 754 mmHg 15%
15:00 +21°C° 0 mm 6 m/s 754 mmHg 15%
16:00 +21°C° 0 mm 6 m/s 754 mmHg 15%
17:00 +17°C° 0 mm 5 m/s 754 mmHg 18%
18:00 +15°C° 0 mm 5 m/s 754 mmHg 21%
19:00 +13°C° 0 mm 4 m/s 754 mmHg 24%
20:00 +13°C° 0 mm 4 m/s 754 mmHg 26%
21:00 +12°C° 0 mm 4 m/s 754 mmHg 29%
22:00 +11°C° 0 mm 4 m/s 754 mmHg 32%
23:00 +11°C° 0 mm 4 m/s 754 mmHg 35%

3 Outubro, Sábado

Tempo Temperatura Precipitação Vento Pressão Humidade
00:00 +10°C° 0 mm 4 m/s 754 mmHg 39%
01:00 +10°C° 0 mm 4 m/s 754 mmHg 42%
02:00 +8°C° 0 mm 4 m/s 754 mmHg 44%
03:00 +8°C° 0 mm 4 m/s 755 mmHg 47%
04:00 +7°C° 0 mm 4 m/s 755 mmHg 49%
05:00 +8°C° 0 mm 4 m/s 755 mmHg 48%
06:00 +10°C° 0 mm 4 m/s 755 mmHg 47%
07:00 +9°C° 0 mm 5 m/s 755 mmHg 46%
08:00 +13°C° 0 mm 5 m/s 755 mmHg 40%
09:00 +15°C° 0 mm 5 m/s 755 mmHg 34%
10:00 +19°C° 0 mm 5 m/s 755 mmHg 28%
11:00 +19°C° 0 mm 5 m/s 755 mmHg 27%
12:00 +20°C° 0 mm 5 m/s 755 mmHg 27%
13:00 +21°C° 0 mm 5 m/s 755 mmHg 26%
14:00 +21°C° 0 mm 5 m/s 755 mmHg 27%
15:00 +20°C° 0 mm 5 m/s 755 mmHg 28%
16:00 +20°C° 0 mm 5 m/s 755 mmHg 28%
17:00 +17°C° 0 mm 5 m/s 755 mmHg 33%
18:00 +15°C° 0 mm 4 m/s 755 mmHg 37%
19:00 +13°C° 0 mm 3 m/s 755 mmHg 41%
20:00 +12°C° 0 mm 3 m/s 755 mmHg 43%
21:00 +12°C° 0 mm 3 m/s 755 mmHg 45%
22:00 +11°C° 0 mm 3 m/s 755 mmHg 47%
23:00 +10°C° 0 mm 3 m/s 755 mmHg 49%

4 Outubro, Domingo

Tempo Temperatura Precipitação Vento Pressão Humidade
00:00 +10°C° 0 mm 3 m/s 755 mmHg 51%
01:00 +9°C° 0 mm 3 m/s 755 mmHg 53%
02:00 +9°C° 0 mm 3 m/s 755 mmHg 55%
03:00 +8°C° 0 mm 3 m/s 755 mmHg 57%
04:00 +8°C° 0 mm 3 m/s 755 mmHg 59%
05:00 +8°C° 0 mm 3 m/s 756 mmHg 56%
06:00 +9°C° 0 mm 3 m/s 756 mmHg 54%
07:00 +9°C° 0 mm 3 m/s 756 mmHg 52%
08:00 +12°C° 0 mm 4 m/s 756 mmHg 44%
09:00 +14°C° 0 mm 4 m/s 756 mmHg 37%
10:00 +17°C° 0 mm 5 m/s 756 mmHg 30%
11:00 +19°C° 0 mm 5 m/s 756 mmHg 28%
12:00 +20°C° 0 mm 5 m/s 756 mmHg 26%
13:00 +21°C° 0 mm 5 m/s 756 mmHg 24%
14:00 +20°C° 0 mm 5 m/s 756 mmHg 25%
15:00 +20°C° 0 mm 5 m/s 756 mmHg 25%
16:00 +20°C° 0 mm 5 m/s 756 mmHg 25%
17:00 +17°C° 0 mm 5 m/s 756 mmHg 31%
18:00 +15°C° 0 mm 5 m/s 756 mmHg 36%
19:00 +13°C° 0 mm 5 m/s 756 mmHg 42%
20:00 +13°C° 0 mm 5 m/s 756 mmHg 45%
21:00 +12°C° 0 mm 4 m/s 756 mmHg 48%
22:00 +11°C° 0 mm 4 m/s 756 mmHg 51%
23:00 +11°C° 0 mm 4 m/s 756 mmHg 53%

5 Outubro, Segunda-feira

Tempo Temperatura Precipitação Vento Pressão Humidade
00:00 +11°C° 0 mm 3 m/s 757 mmHg 55%
01:00 +10°C° 0 mm 3 m/s 757 mmHg 56%
02:00 +10°C° 0 mm 3 m/s 756 mmHg 58%
03:00 +10°C° 0 mm 3 m/s 756 mmHg 59%
04:00 +9°C° 0 mm 2 m/s 756 mmHg 60%
05:00 +10°C° 0 mm 3 m/s 757 mmHg 57%
06:00 +11°C° 0 mm 3 m/s 757 mmHg 53%
07:00 +12°C° 0 mm 3 m/s 757 mmHg 50%
08:00 +14°C° 0 mm 3 m/s 757 mmHg 45%
09:00 +17°C° 0 mm 4 m/s 757 mmHg 39%
10:00 +19°C° 0 mm 4 m/s 757 mmHg 34%
11:00 +19°C° 0 mm 4 m/s 757 mmHg 33%
12:00 +20°C° 0 mm 5 m/s 756 mmHg 32%
13:00 +20°C° 0 mm 5 m/s 756 mmHg 31%
14:00 +20°C° 0 mm 5 m/s 756 mmHg 31%
15:00 +19°C° 0 mm 6 m/s 756 mmHg 32%
16:00 +19°C° 0 mm 6 m/s 756 mmHg 33%
17:00 +16°C° 0 mm 5 m/s 756 mmHg 35%
18:00 +14°C° 0 mm 5 m/s 756 mmHg 38%
19:00 +13°C° 0 mm 4 m/s 756 mmHg 40%
20:00 +12°C° 0 mm 5 m/s 757 mmHg 40%
21:00 +10°C° 0 mm 5 m/s 757 mmHg 39%
22:00 +9°C° 0 mm 6 m/s 757 mmHg 39%
23:00 +8°C° 0 mm 6 m/s 757 mmHg 43%
Mostrar mais